Overview Statistics Trail Chart Weather Telemetry Raw packets
 

This is the latest recevied weather packets stored in our database for station/object F5IOR. If no packets are shown the sender has not sent any weather packets the latest 10 day(s).

<< 1 2 3 4 5 6 >>
Time Temp. Humidity Pressure Rain* Wind** Luminosity Snow
1788508086 18.89° C 67% 992.5 hPa 0 mm - - -
1788507846 18.89° C 67% 992.5 hPa 0 mm - - -
1788507726 18.89° C 67% 992.5 hPa 0 mm - - -
1788507606 18.89° C 67% 992.5 hPa 0 mm - - -
1788507486 18.89° C 67% 992.5 hPa 0 mm - - -
1788507366 18.89° C 67% 992.5 hPa 0 mm - - -
1788507306 18.89° C 67% 992.5 hPa 0 mm - - -
1788507246 18.89° C 67% 992.5 hPa 0 mm - - -
1788507186 18.89° C 67% 992.5 hPa 0 mm - - -
1788462365 24.44° C 42% 994.5 hPa 0 mm - - -
1788460565 25° C 40% 994.5 hPa 0 mm - - -
1788458765 26.11° C 36% 994.2 hPa 0 mm - - -
1788456965 26.67° C 35% 994.2 hPa 0 mm - - -
1788455165 27.22° C 34% 994.6 hPa 0 mm - - -
1788453365 27.78° C 34% 994.8 hPa 0 mm - - -
1788451565 27.78° C 34% 995 hPa 0 mm - - -
1788449765 27.78° C 34% 995.1 hPa 0 mm - - -
1788447965 27.78° C 33% 995.3 hPa 0 mm - - -
1788446165 27.78° C 33% 995.4 hPa 0 mm - - -
1788444365 27.78° C 34% 995.4 hPa 0 mm - - -
1788442576 27.78° C 34% 995.5 hPa 0 mm - - -
1788440765 27.22° C 39% 995.7 hPa 0 mm - - -
1788438965 27.22° C 40% 995.7 hPa 0 mm - - -
1788437165 26.11° C 43% 996 hPa 0 mm - - -
1788435365 26.11° C 44% 996.2 hPa 0 mm - - -

* Rain latest hour (hover to see other rain measurements)
** Current wind speed in m/s (hover to see current wind gust speed)